User: anonymous   Login
Location: Unspecified
(0.0000°N, 0.0000°E)
Time: 16:39:16
(UTC+00:00)
Language:

Vanguard 2 - Orbit

View from above orbital plane
View from above orbital plane
View from above satellite
View from above satellite

Ground track
Ground track

The orbit data is extracted from the following two-line orbital elements,

1    11U 59001A   18169.79370585 -.00000106 +00000-0 -53150-4 0  9993
2    11 032.8670 274.5361 1468111 092.8012 284.0905 11.85535249188358
Epoch (UTC): 18 June 2018 19:02:56
Eccentricity: 0.1468111
inclination: 32.8670°
perigee height: 553 km
apogee height: 2939 km
right ascension of ascending node: 274.5361°
argument of perigee: 92.8012°
revolutions per day: 11.85535249
mean anomaly at epoch: 284.0905°
orbit number at epoch: 18835

The dashed part of the orbit path shows where the satellite is in the earth's shadow,  

DLR